Regional Weather Roundup
Issued by NWS Charleston, SC

Current Version | Previous Version | Graphics & Text | Print | Product List | Glossary On
Versions: 1 2 3 4 5 6 7 8 9 10 11 12 13 14 15 16 17 18 19 20 21 22 23 24 25 26 27 28 29 30 31 32 33 34 35 36 37 38 39 40 41 42 43 44 45 46 47 48 49 50
000 ASUS42 KCHS 220425 RWRCHS REGIONAL WEATHER ROUNDUP NATIONAL WEATHER SERVICE CHARLESTON SC 1200 AM EDT WED OCT 22 2014 NOTE: "FAIR" INDICATES FEW OR NO CLOUDS BELOW 12,000 FEET WITH NO SIGNIFICANT WEATHER AND/OR OBSTRUCTIONS TO VISIBILITY. NOT ALL STATIONS ARE QUALITY CONTROLLED BY THE NATIONAL WEATHER SERVICE. USE DATA WITH CAUTION...ESPECIALLY DEWPOINT OBSERVATIONS. SCZ027-030-031-034>040-042>050-220500- ...SOUTH CAROLINA... CITY SKY/WX TMP DP RH WIND PRES REMARKS N CHARLESTON CLEAR 64 56 75 W6 29.92S WATERFRONT PRK NOT AVBL FORT JOHNSON NOT AVBL JOHNS ISLAND CLEAR 63 61 94 CALM 29.93S PINOPOLIS NOT AVBL MONCKS CORNER FAIR 61 57 88 CALM 29.93R FOG SUMMERVILLE MOCLDY 57 57 100 W3 29.94S BEAUFORT MCAS CLEAR 63 55 75 W6 29.94S BEAUFORT ARPT FAIR 63 59 88 W3 29.94S HILTON HEAD IS CLEAR 64 57 77 W5 29.95F GEORGETOWN NOT AVBL WALTERBORO CLEAR 59 57 94 W3 29.95R ORANGEBURG CLEAR 60 51 72 NW3 29.96R BARNWELL FAIR 61 52 72 NW6 29.97R AIKEN FAIR 57 48 72 N6 30.00S MANNING FAIR 63 52 67 N5 29.94S KINGSTREE NOT AVBL COLUMBIA CLEAR 62 44 51 CALM 29.96R SUMTER CLEAR 60 47 62 N9 29.93S FLORENCE CLEAR 62 43 49 N10 29.93S MYRTLE BEACH MOCLDY 64 54 68 NW9 29.91R N MYRTLE BEACH CLOUDY 65 54 67 NW5G18 29.89S $$ GAZ063-065-086>088-099>101-113>116-118-119-134-136>141-150-220500- ...GEORGIA... CITY SKY/WX TMP DP RH WIND PRES REMARKS SAVANNAH ARPT CLEAR 63 54 72 W5 29.96S HUNTER AAF CLEAR 60 55 84 W6 29.94S FORT STEWART CLEAR 59 54 83 CALM 29.95F STATESBORO NOT AVBL SYLVANIA CLEAR 59 57 92 CALM 29.97F CLAXTON FAIR 55 55 100 CALM 29.98S THOMSON CLEAR 55 55 99 CALM 30.04R AUGUSTA-BUSH CLEAR 58 47 66 NW3 29.97R AUGUSTA-DANIEL CLEAR 63 49 60 N6 29.98R SWAINSBORO FAIR 55 54 94 MISG 29.99S FOG VIDALIA CLEAR 57 54 88 CALM 29.99S ALMA CLEAR 56 53 90 CALM 29.98S WAYCROSS CLEAR 61 58 91 CALM 29.98S JESUP FAIR 63 57 82 NW6 29.97F BRUNSWICK CLEAR 59 55 88 CALM 29.98S SAINT SIMONS CLEAR 65 56 72 N3 29.96F $$ SCZ027-028-034-036>038-045-046-048>050-GAZ119-141-220500- ...LAKE AND SUPPLEMENTAL COASTAL OBSERVATIONS... STATION/POSITION TIME TEMP WIND PRES WAVE SWELL AIR SEA DIR/SP/G HT/PER HT/PER/DIR (UTC) (F) (DEG/KT/KT) (MB) (FT/S) (FT/S/D) UPR LAKE MARION NOT AVBL WINYAH BAY 0400 64 260/ 5 1012.0S LAKE MURRAY 0300 63 340/ 3/ 6 1014.2R ACE BASIN NERRS 0400 61 CALM 1013.0S FORT PULASKI 0400 69 270/ 7/ 9 1014.4F SAPELO ISLAND NOT AVBL $$ ANZ835-935-AMZ111-154-330-350-352-354-374-450-454-472-220500- ...C-MAN AND BUOY OBSERVATIONS... STATION/POSITION TIME TEMP WIND PRES WAVE SWELL AIR SEA DIR/SP/G HT/PER HT/PER/DIR (UTC) (F) (DEG/KT/KT) (MB) (FT/S) (FT/S/D) FOLLY BEACH CMAN 0400 66 250/ 6/ 8 1013.5F BUOY 41004 0400 76 79 250/ 16/ 17 1012.5F 3/ 4 2/ 9 BUOY 41008 0400 75 76 300/ 14/ 16 1014.3F 1/ 9 2/ 90/ 9 5E ST. MARYS GA 0400 77 N/A 1/10 FRYING PAN BUOY 0400 74 75 250/ 14/ 17 1012.5F 3/ 4 2/ 90/ 9 BUOY 41025 0400 72 260/ 14/ 17 1010.0F 4/ 6 2/100/10 CAPE LOOKOUT NC 0400 71 260/ 12/ 15 1010.3F BUOY 41002 0345 77 80 260/ 14/ 19 1012.7F 3/10 2/110/10 BUOY 41010 0400 78 80 230/ 6/ 8 1014.3F 2/11 2/ 50/11 BUOY 41012 NOT AVBL ST AUGUSTINE FL 0400 70 240/ 6/ 6 1015.1F CAPERS NEARSHORE 0300 72 260/ 12/ 14 N/A FRIPP NEARSHORE NOT AVBL $$

USA.gov is the U.S. government's official web portal to all federal, state and local government web resources and services.